Home   Weather   Fullerton   Past weeks

Flag for USA Past Weather in Fullerton, California, USA — Yesterday and Last 2 Weeks

Now
63 °F

Clear.


Feels Like: 63 °F
Forecast: 57 / 82 °F
Wind: 6 mph from Southeast

Location: Fullerton Municipal Airport

Current Time: Apr 26, 2017 at 1:21:36 am

Latest Report: Apr 25, 2017 at 11:53 pm


Visibility: 10 mi

Pressure: 29.89 "Hg

Humidity: 68%

Dew Point: 52 °F

Location of FullertonLocation

Past Weather in Fullerton — Graph

°F

Fullerton Temperature Yesterday

Maximum temperature yesterday: 77 °F (at 12:53 pm)
Minimum temperature yesterday: 60 °F (at 1:53 am)
Average temperature yesterday: 66 °F

High & Low Weather Summary for the Past Weeks

 TemperatureHumidityPressure
High91 °F (Apr 21, 3:53 pm)93% (Apr 18, 9:34 pm)30.12 "Hg (Apr 18, 9:34 pm)
Low50 °F (Apr 15, 5:53 am)19% (Apr 21, 4:53 pm)29.80 "Hg (Apr 22, 3:53 pm)
Average66 °F61%29.96 "Hg
* Reported Apr 10 11:53 pm — Apr 25 11:53 pm, Fullerton, Weather by CustomWeather, © 2017

Note: Actual official high and low records may vary slightly from our data, if they occured in-between our weather recording intervals... More about our weather records

Advertising

Fullerton Weather History for the Previous 24 Hours

Scroll right to see more
 ConditionsComfort  
Time TempWeatherWind HumidityBarometerVisibility
11:53 pm
Tue, Apr 25
63 °FClear.6 mph68%29.89 "Hg10 mi
10:53 pm64 °FClear.7 mph63%29.90 "Hg10 mi
9:53 pm65 °FClear.5 mph61%29.89 "Hg10 mi
8:53 pm67 °FClear.9 mph57%29.86 "Hg10 mi
7:53 pm69 °FClear.6 mph49%29.85 "Hg10 mi
6:53 pm71 °FSunny.6 mph42%29.83 "Hg10 mi
5:53 pm72 °FSunny.6 mph41%29.83 "Hg10 mi
4:53 pm74 °FSunny.7 mph36%29.83 "Hg10 mi
3:53 pm76 °FSunny.7 mph30%29.84 "Hg10 mi
2:53 pm75 °FSunny.10 mph33%29.85 "Hg10 mi
1:53 pm77 °FSunny.9 mph31%29.85 "Hg10 mi
12:53 pm77 °FPartly sunny.13 mph21%29.87 "Hg10 mi
11:53 am73 °FSunny.No wind40%29.89 "Hg10 mi
10:53 am71 °FPartly sunny.5 mph49%29.90 "Hg10 mi
9:53 am68 °FBroken clouds.No wind57%29.89 "Hg10 mi
8:53 am65 °FPartly sunny.6 mph70%29.88 "Hg9 mi
7:53 am63 °FPartly sunny.5 mph75%29.87 "Hg10 mi
6:53 am60 °FPartly sunny.3 mph80%29.85 "Hg10 mi
5:53 am60 °FPassing clouds.6 mph83%29.83 "Hg10 mi
5:29 am60 °FPassing clouds.5 mph83%29.83 "Hg10 mi
4:53 am60 °FClear.No wind83%29.83 "Hg10 mi
4:05 am60 °FPassing clouds.5 mph83%29.83 "Hg10 mi
3:53 am60 °FPassing clouds.6 mph83%29.83 "Hg10 mi
3:23 am60 °FPassing clouds.3 mph83%29.84 "Hg10 mi
2:53 am60 °FPassing clouds.No wind83%29.83 "Hg10 mi
1:53 am60 °FPassing clouds.3 mph86%29.85 "Hg10 mi
Weather by CustomWeather, © 2017

See weather overviewHow to use our weather pages